Showing default

NAPA-1, 46320

Orbit data source: Space-Track

NAPA-1, 46320 is a payload satellite owned by RTAF (TH) in SSO that was launched on Thu, 03 Sep 2020 UTC via a VEGA launch vehicle from the French Guiana (FRGUI). Payload-class satellites include a variety of spacecraft equipped with specific instruments for various scientific and technological missions. These include communications satellites like Starlink; space stations such as the ISS; scientific satellites like the Hubble; Earth observation satellites from companies like Planet Labs, Umbra, and HawkEye 360; GPS; miniature CubeSats for education and research; and military/defense satellites.

Loading next visibility...
Identifier
46320, 2020-061BA
Orbit
SSO
Country
Flag of UnknownUnknown / THAI
Related business
Manufacturer
ISIS BV
Mission
Operational Defense Imaging
Bus & Motor
CUBESAT 6U, Unknown motor
Mass
10 kg wet, 10 kg dry
Launch date (UTC)
2020-09-03 (5 years ago)
Launch vehicle
VEGA
Launch site
French Guiana (FRGUI)
Object type
Payload
Rocket body
Debris
Shape & HBR
Box, Unknown HBR
Radar Cross Section
0.080 m², Medium (>0.1 m² and < 1m²)

Expand to show TLE details & history
Last TLE update: 8 hours ago

TLE from 8 hours ago
0 NAPA-1
1 46320U 20061BA  26062.19583262  .00050619  00000-0  71889-3 0  9993
2 46320  97.2603 133.8044 0001186 118.5106 241.6268 15.56262363305191
Epoch: 2026-03-03T04:41Z
TLE epoch observation values (Epoch: 2026-03-03T04:41:59.938Z)
Latitude
-0.00008°
Longitude
-97.6737°
Altitude
402.011 km
Speed
7.669 km/s
True Right ascension
08h 55m 13s
True Declination
0° 00' 00"
Sunlit
Object was in full shadow at epoch
Visualization orbit readout
Latitude
Unknown
Longitude
Unknown
Altitude
Unknown
Speed
Unknown
Apparent Right ascension
Unknown
Apparent Declination
Unknown
Sunlit
N/A
Visualization observer readout
Local Sidereal Time
16:09:07
Azimuth
Unknown
Elevation
Unknown
Doppler factor
Unknown
Orbital elements
Apogee altitude
396.2 km
Perigee altitude
394.594 km
Semi-major axis
6,773.534 km
Eccentricity
0.00012
Inclination
97.2603°
RAAN
133.8044°
Arg. of periapsis
118.5106°
True anomaly
241.61484°
Mean anomaly
241.6268°
Eccentric anomaly
241.62082°
Mean motion
3.89332 °/min
Orbital period
92.47 mins
BSTAR
0.00071889
Loading maneuver chart data...
Computing Atmospheric mass density...
Loading historical data...
Loading historical data...
Loading historical data...
Loading historical data...
Loading historical data...
Loading historical data...
Loading historical data...

Documentation

Showing up to 5 results
|